Showing default

HELLAS-SAT 3, 42814

Orbit data source: Space-Track

HELLAS-SAT 3, 42814 is a payload satellite owned by HellasSat (ESA) in GEO that was launched on Wed, 28 Jun 2017 UTC via an ARIANE 5ECA launch vehicle from the French Guiana (FRGUI). Payloads include a variety of satellites, spacecraft, and rockets equipped with specific instruments for various scientific and technological missions. These include communications satellites like Starlink; space stations such as the ISS; scientific satellites like the Hubble; Earth observation satellites from companies like Planet Labs, Umbra, and HawkEye 360; GPS; miniature CubeSats for education and research; and military/defense satellites.

Not visible in the next 10 days
HELLAS-SAT 3 details
Identifier
42814, 2017-040A
Orbit
GEO
Last TLE update10 hours ago
Origin
Flag of ESAHellasSat (ESA)
ManufacturerThales Alenia
MissionOperational Commercial Communications
Bus & MotorSPACEBUS 4000C4, S400
Mass5,780 kg wet, ~2,500 kg dry
Launch date (UTC)
2017-06-28 (7 years ago)
Launch vehicle
ARIANE 5ECA
Launch site
French Guiana (FRGUI)
Object type
Payload
Rocket body
Debris
Shape & HBRBox + 2 Pan, 37 m
Radar Cross Section31.794 m², Large (>1 m²)

Expand to show TLE details & history

TLE from 10 hours ago
0 HELLAS-SAT 3
1 42814U 17040A   24361.42479869  .00000181  00000-0  00000-0 0  9996
2 42814   0.0513  34.3970 0002952 292.5936 320.3550  1.00269156 27412
Epoch: 2024-12-26T10:11Z
Definitive object data (Epoch: 2024-12-26T10:11:42.606Z)
Latitude-0.06856°
Longitude38.98453°
Altitude35,777.238 km
Speed3.075 km/s
True Right ascension19h 09m 15s
True Declination0° 04' 07"
Sunlit
Object was in daylight at TLE epoch
Visualization TLE readout
Latitude0.05433°
Longitude-172.75267°
Altitude35,790.763 km
Speed3.074 km/s
Apparent Right ascension05h 16m 32s
Apparent Declination-4° 58' 60"
Sunlit
Object is in daylight
Visualization observer readout
Local Sidereal Time19:25:42
Azimuth48.324° ENE
Elevation-44.561°
Doppler factor1
Orbital elements
Apogee altitude35,800.85 km
Perigee altitude35,775.955 km
Semi-major axis42,166.539 km
Eccentricity0.0002952
Inclination0.0513°
RAAN34.397°
Arg. of periapsis292.5936°
True anomaly320.33341°
Mean anomaly320.355°
Eccentric anomaly320.34421°
Mean motion0.25066 °/min
BSTARUnknown
Orbital period1436.19 mins
Loading historical data...
42814 neighbors
Authenticating...
Loading maneuver chart data...
Loading historical data...
Loading historical data...
Loading historical data...
Loading historical data...
Loading historical data...
Loading historical data...
Loading historical data...
Other satellites on launch #40 in the year 2017 (2017-06-28 UTC)

HELLAS-SAT 3 Visibility forecast

Observer location: undefined°, undefined

HELLAS-SAT 3 is not visible in the next 10 days
Span
Click to sort rows by Start time (UTC) header in descending order
Start Az.
Max El. time (UTC)
Max El. Az.
Max El.
End time (UTC)
End Az.
|